Satellite: NOAA-11 Catalog number: 19531 Epoch time: 13220.49589214 Element set: 462 Inclination: 098.7086 deg RA of node: 302.2914 deg Eccentricity: 0.0012393 Arg of perigee: 111.8527 deg Mean anomaly: 319.2682 deg Mean motion: 14.15024045 rev/day Decay rate: 3.2e-07 rev/day^2 Epoch rev: 28352 Checksum: 278
Satellite: NOAA-12 Catalog number: 21263 Epoch time: 13220.48531071 Element set: 929 Inclination: 098.6953 deg RA of node: 245.4512 deg Eccentricity: 0.0014814 Arg of perigee: 070.8134 deg Mean anomaly: 064.7789 deg Mean motion: 14.25580199 rev/day Decay rate: 1.0e-07 rev/day^2 Epoch rev: 15600 Checksum: 287
Satellite: MET-3/5 Catalog number: 21655 Epoch time: 13219.75588876 Element set: 754 Inclination: 082.5540 deg RA of node: 217.8552 deg Eccentricity: 0.0013145 Arg of perigee: 006.8480 deg Mean anomaly: 353.2819 deg Mean motion: 13.17052221 rev/day Decay rate: -4.31e-06 rev/day^2 Epoch rev: 5672 Checksum: 301
Satellite: MET-2/21 Catalog number: 22782 Epoch time: 13219.76263940 Element set: 811 Inclination: 082.5469 deg RA of node: 061.9977 deg Eccentricity: 0.0023480 Arg of perigee: 066.7429 deg Mean anomaly: 049.7801 deg Mean motion: 13.83709844 rev/day Decay rate: 5.0e-08 rev/day^2 Epoch rev: 677 Checksum: 326
Satellite: OKEAN-4 Catalog number: 23317 Epoch time: 13220.78587903 Element set: 290 Inclination: 082.5410 deg RA of node: 000.5547 deg Eccentricity: 0.0022001 Arg of perigee: 055.9238 deg Mean anomaly: 095.8811 deg Mean motion: 14.84572968 rev/day Decay rate: 6.09e-06 rev/day^2 Epoch rev: 1674 Checksum: 293
Satellite: NOAA-14 Catalog number: 23455 Epoch time: 13220.16037884 Element set: 409 Inclination: 098.8010 deg RA of node: 303.8092 deg Eccentricity: 0.0009283 Arg of perigee: 203.7322 deg Mean anomaly: 242.6893 deg Mean motion: 14.13915269 rev/day Decay rate: 7.6e-07 rev/day^2 Epoch rev: 95971 Checksum: 304
Satellite: NOAA-15 Catalog number: 25338 Epoch time: 13220.09891005 Element set: 831 Inclination: 098.7287 deg RA of node: 210.0309 deg Eccentricity: 0.0009985 Arg of perigee: 343.4499 deg Mean anomaly: 080.8570 deg Mean motion: 14.25251652 rev/day Decay rate: 1.28e-06 rev/day^2 Epoch rev: 79224 Checksum: 308
Satellite: RESURS Catalog number: 25394 Epoch time: 13220.83495595 Element set: 440 Inclination: 098.3672 deg RA of node: 194.1630 deg Eccentricity: 0.0002688 Arg of perigee: 099.4566 deg Mean anomaly: 318.5183 deg Mean motion: 14.24333400 rev/day Decay rate: -1.9e-07 rev/day^2 Epoch rev: 78385 Checksum: 314
Satellite: FENGYUN1 Catalog number: 25730 Epoch time: 13219.95328449 Element set: 934 Inclination: 098.8809 deg RA of node: 178.8368 deg Eccentricity: 0.0023848 Arg of perigee: 263.6020 deg Mean anomaly: 127.5692 deg Mean motion: 14.10593089 rev/day Decay rate: 2.70e-06 rev/day^2 Epoch rev: 73334 Checksum: 331
Satellite: OKEAN-0 Catalog number: 25860 Epoch time: 13220.08825671 Element set: 14 Inclination: 097.9954 deg RA of node: 181.8572 deg Eccentricity: 0.0001281 Arg of perigee: 076.4634 deg Mean anomaly: 340.2768 deg Mean motion: 14.74660231 rev/day Decay rate: 3.55e-06 rev/day^2 Epoch rev: 75600 Checksum: 293
Satellite: NOAA-16 Catalog number: 26536 Epoch time: 13220.16971075 Element set: 315 Inclination: 099.0379 deg RA of node: 273.4394 deg Eccentricity: 0.0010059 Arg of perigee: 354.6222 deg Mean anomaly: 038.9512 deg Mean motion: 14.12904414 rev/day Decay rate: 8.0e-08 rev/day^2 Epoch rev: 66391 Checksum: 293
Satellite: NOAA-17 Catalog number: 27453 Epoch time: 13220.10912367 Element set: 226 Inclination: 098.3130 deg RA of node: 231.4375 deg Eccentricity: 0.0011744 Arg of perigee: 020.1503 deg Mean anomaly: 023.7790 deg Mean motion: 14.24609047 rev/day Decay rate: 3.7e-07 rev/day^2 Epoch rev: 57811 Checksum: 261
Satellite: NOAA-18 Catalog number: 28654 Epoch time: 13220.10803795 Element set: 713 Inclination: 099.1049 deg RA of node: 189.0840 deg Eccentricity: 0.0015297 Arg of perigee: 065.7154 deg Mean anomaly: 064.7615 deg Mean motion: 14.11847189 rev/day Decay rate: 1.68e-06 rev/day^2 Epoch rev: 42338 Checksum: 318
Satellite: NOAA-19 Catalog number: 33591 Epoch time: 13219.99753329 Element set: 895 Inclination: 098.9055 deg RA of node: 161.6604 deg Eccentricity: 0.0012894 Arg of perigee: 284.7127 deg Mean anomaly: 208.2215 deg Mean motion: 14.11534213 rev/day Decay rate: 8.3e-07 rev/day^2 Epoch rev: 23180 Checksum: 312
/EX SB KEPS @ AMSAT $ORB13220.M Orbital Elements 13220.MISC
HR AMSAT ORBITAL ELEMENTS FOR MANNED AND MISCELLANEOUS SATELLITES FROM WA5QGD FORT WORTH,TX August 8, 2013 BID: ORB13220.M TO ALL RADIO AMATEURS BT
Satellite: HUBBLE Catalog number: 20580 Epoch time: 13220.41394208 Element set: 299 Inclination: 028.4709 deg RA of node: 290.4198 deg Eccentricity: 0.0003520 Arg of perigee: 181.9712 deg Mean anomaly: 178.0797 deg Mean motion: 15.03821998 rev/day Decay rate: 1.390e-05 rev/day^2 Epoch rev: 7756 Checksum: 307
Satellite: ISS Catalog number: 25544 Epoch time: 13220.77567130 Element set: 353 Inclination: 051.6489 deg RA of node: 207.7649 deg Eccentricity: 0.0003610 Arg of perigee: 287.7002 deg Mean anomaly: 069.2197 deg Mean motion: 15.50212290 rev/day Decay rate: 4.883e-05 rev/day^2 Epoch rev: 84285 Checksum: 298
Satellite: CO-58 Catalog number: 28895 Epoch time: 13220.60560967 Element set: 542 Inclination: 097.8645 deg RA of node: 073.3562 deg Eccentricity: 0.0016111 Arg of perigee: 276.5474 deg Mean anomaly: 083.3893 deg Mean motion: 14.61187261 rev/day Decay rate: 3.85e-06 rev/day^2 Epoch rev: 41459 Checksum: 333
Satellite: FALCON Catalog number: 30776 Epoch time: 13220.14580193 Element set: 669 Inclination: 035.4296 deg RA of node: 243.2070 deg Eccentricity: 0.0000403 Arg of perigee: 004.8869 deg Mean anomaly: 060.2708 deg Mean motion: 15.11090934 rev/day Decay rate: 2.906e-05 rev/day^2 Epoch rev: 35328 Checksum: 274
Satellite: MAST Catalog number: 31126 Epoch time: 13220.77175591 Element set: 822 Inclination: 097.8849 deg RA of node: 213.7035 deg Eccentricity: 0.0091897 Arg of perigee: 248.2595 deg Mean anomaly: 189.5704 deg Mean motion: 14.54638764 rev/day Decay rate: 2.03e-06 rev/day^2 Epoch rev: 33496 Checksum: 331
Satellite: CAPE1 Catalog number: 31130 Epoch time: 13220.84505613 Element set: 825 Inclination: 097.9024 deg RA of node: 210.1482 deg Eccentricity: 0.0099006 Arg of perigee: 264.2585 deg Mean anomaly: 094.7318 deg Mean motion: 14.53576880 rev/day Decay rate: 2.53e-06 rev/day^2 Epoch rev: 33442 Checksum: 283
Satellite: COMPASS Catalog number: 32787 Epoch time: 13220.67257427 Element set: 696 Inclination: 097.7478 deg RA of node: 277.8706 deg Eccentricity: 0.0016144 Arg of perigee: 129.5352 deg Mean anomaly: 230.7293 deg Mean motion: 14.85717915 rev/day Decay rate: 1.323e-05 rev/day^2 Epoch rev: 28575 Checksum: 336
Satellite: AAUSAT2 Catalog number: 32788 Epoch time: 13220.73188452 Element set: 681 Inclination: 097.7487 deg RA of node: 278.6005 deg Eccentricity: 0.0015668 Arg of perigee: 128.7436 deg Mean anomaly: 231.5183 deg Mean motion: 14.86197321 rev/day Decay rate: 1.496e-05 rev/day^2 Epoch rev: 28580 Checksum: 334
Satellite: DO-64 Catalog number: 32789 Epoch time: 13220.80939169 Element set: 711 Inclination: 097.7644 deg RA of node: 282.7682 deg Eccentricity: 0.0015160 Arg of perigee: 121.2685 deg Mean anomaly: 332.1101 deg Mean motion: 14.88979447 rev/day Decay rate: 2.793e-05 rev/day^2 Epoch rev: 28595 Checksum: 342
Satellite: CO-66 Catalog number: 32791 Epoch time: 13220.13508794 Element set: 674 Inclination: 097.7479 deg RA of node: 276.6414 deg Eccentricity: 0.0016569 Arg of perigee: 132.5275 deg Mean anomaly: 261.2882 deg Mean motion: 14.84812579 rev/day Decay rate: 1.358e-05 rev/day^2 Epoch rev: 28558 Checksum: 353
Satellite: RS-30 Catalog number: 32953 Epoch time: 13220.86046492 Element set: 103 Inclination: 082.4976 deg RA of node: 035.4284 deg Eccentricity: 0.0019529 Arg of perigee: 116.3252 deg Mean anomaly: 243.9838 deg Mean motion: 12.43035841 rev/day Decay rate: 1.0e-07 rev/day^2 Epoch rev: 23645 Checksum: 284
Satellite: METEOR-M Catalog number: 35865 Epoch time: 13220.72099099 Element set: 697 Inclination: 098.5984 deg RA of node: 271.8432 deg Eccentricity: 0.0001810 Arg of perigee: 299.5482 deg Mean anomaly: 060.5515 deg Mean motion: 14.21890788 rev/day Decay rate: -1.9e-07 rev/day^2 Epoch rev: 20193 Checksum: 328
Satellite: RS-38 Catalog number: 35869 Epoch time: 13220.67482653 Element set: 652 Inclination: 098.5932 deg RA of node: 271.6991 deg Eccentricity: 0.0003859 Arg of perigee: 287.5210 deg Mean anomaly: 072.5545 deg Mean motion: 14.22139497 rev/day Decay rate: 1.7e-07 rev/day^2 Epoch rev: 20195 Checksum: 331
Satellite: JUGNU Catalog number: 37839 Epoch time: 13220.74656578 Element set: 437 Inclination: 019.9621 deg RA of node: 348.3168 deg Eccentricity: 0.0018899 Arg of perigee: 141.7645 deg Mean anomaly: 010.5966 deg Mean motion: 14.12171218 rev/day Decay rate: 3.75e-06 rev/day^2 Epoch rev: 9433 Checksum: 322
Satellite: SRMSAT Catalog number: 37841 Epoch time: 13219.81528571 Element set: 438 Inclination: 019.9728 deg RA of node: 007.0359 deg Eccentricity: 0.0011980 Arg of perigee: 082.4994 deg Mean anomaly: 069.0112 deg Mean motion: 14.10239088 rev/day Decay rate: 3.47e-06 rev/day^2 Epoch rev: 9407 Checksum: 304
Satellite: RAX-2 Catalog number: 37853 Epoch time: 13220.17433944 Element set: 562 Inclination: 101.7045 deg RA of node: 097.9150 deg Eccentricity: 0.0233589 Arg of perigee: 238.3535 deg Mean anomaly: 276.4902 deg Mean motion: 14.84028805 rev/day Decay rate: 2.340e-05 rev/day^2 Epoch rev: 9615 Checksum: 301
